DateTimeUTC,F1_A11,F1_S11,BsB_S11,BsG_S11,BsR_S11,BbsB_S11,BbsG_S11,BbsR_S11,BaB_A11,BaG_A11,BaR_A11,Tu_S11,T_S11,Uu_S11,U_S11,P_S11,T1_A11
2021-01-29T14:00:00Z,00000200,21000000,,,,,,,0000.22,-000.08,-000.03,16.5,24.3,,00.0,0637.2,30.9
2021-01-29T14:01:00Z,00000200,21000000,,,,,,,-000.37,0000.19,-000.15,16.5,24.3,,00.0,0637.2,30.9
2021-01-29T14:02:00Z,00000200,21000000,,,,,,,0000.38,0000.15,0000.11,16.4,24.3,,00.0,0637.2,30.9
2021-01-29T14:03:00Z,00000200,61000000,,,,,,,0001.79,0001.65,0001.78,16.4,24.3,,00.0,0637.2,30.9
2021-01-29T14:04:00Z,00000200,41000000,0000.41,0000.15,0000.12,-000.21,-000.08,-000.00,-000.04,-000.03,0000.01,16.5,23.9,,00.0,0637.6,30.9
2021-01-29T14:05:00Z,00000200,01000000,0000.04,0000.18,0000.22,0000.43,-000.20,0000.15,0000.19,0000.17,0000.18,16.5,23.8,,00.0,0637.7,30.9
2021-01-29T14:06:00Z,00000200,01000000,0000.82,-000.13,0000.03,-000.22,-000.10,0000.09,0000.14,0000.15,-000.44,16.4,23.8,,00.0,0637.8,30.9
2021-01-29T14:07:00Z,00000200,01000000,0000.32,0000.23,0000.48,0000.51,-000.12,0000.17,-000.25,-000.02,0000.50,16.4,23.7,,00.0,0637.8,30.9
2021-01-29T14:08:00Z,00000200,01000000,0000.89,0000.03,0000.01,0000.22,-000.09,0000.24,-000.09,-000.40,-000.29,16.3,23.7,,00.0,0637.8,30.9
2021-01-29T14:09:00Z,00000200,01000000,0000.04,0000.00,0000.34,-000.27,-000.04,0000.35,0000.38,0000.25,0000.00,16.3,23.6,,00.0,0637.8,30.9
2021-01-29T14:10:00Z,00000200,01000000,0000.57,-000.09,0000.04,0000.20,-000.00,0000.52,0000.44,0000.32,0000.31,16.2,23.6,,00.0,0637.8,30.9
2021-01-29T14:11:00Z,00000200,01000000,0001.14,0000.08,0000.20,0000.42,-000.07,0000.26,-000.24,-000.15,0000.11,16.1,23.5,,00.0,0637.8,30.9
2021-01-29T14:12:00Z,00000200,01000000,0000.62,0000.16,0000.31,0000.18,0000.11,0000.19,0000.20,0000.37,-000.14,16.0,23.5,,00.0,0637.8,30.9
2021-01-29T14:13:00Z,00000200,01000000,0000.36,0000.13,0000.20,0000.59,-000.14,-000.06,0000.08,-000.19,-000.00,16.0,23.4,,00.0,0637.8,30.8
2021-01-29T14:14:00Z,00000200,01000000,0000.52,0000.50,0000.24,0000.28,-000.18,0000.19,-000.27,0000.21,0000.31,15.9,23.3,,00.0,0637.7,30.8
2021-01-29T14:15:00Z,00000200,01000000,0000.68,0000.11,0000.20,0000.24,0000.10,0000.14,0000.16,-000.39,0000.01,15.8,23.3,,00.0,0637.6,30.8
2021-01-29T14:16:00Z,00000200,01000000,0000.60,0000.05,-000.05,0000.03,0000.11,0000.01,0000.48,0000.26,-000.23,15.8,23.2,,00.0,0637.7,30.8
2021-01-29T14:17:00Z,00000200,01000000,0001.24,0000.07,0000.16,0000.51,-000.04,-000.10,0000.42,0000.26,0000.72,15.8,23.2,,00.0,0637.7,30.8
2021-01-29T14:18:00Z,00000200,01000000,0000.14,0000.30,0000.22,0000.24,0000.09,0000.30,0000.19,0000.67,0000.16,15.9,23.2,,00.0,0637.7,30.9
2021-01-29T14:19:00Z,00000200,01000000,0000.31,0000.14,0000.11,0000.34,-000.06,0000.16,0000.53,0000.22,0000.26,16.0,23.3,,00.0,0637.6,30.9
2021-01-29T14:20:00Z,00000200,01000000,0000.55,0000.04,0000.26,0000.40,-000.10,0000.15,0000.27,0000.08,0000.12,16.1,23.3,,00.0,0637.7,30.9
2021-01-29T14:21:00Z,00000200,01000000,0000.83,0000.34,0000.02,0000.40,-000.05,0000.06,0000.20,0000.57,0000.14,16.2,23.4,,00.0,0637.6,30.9
2021-01-29T14:22:00Z,00000200,01000000,0000.17,0000.55,0000.15,0000.86,0000.10,0000.06,0000.85,0001.29,0000.42,16.2,23.4,,00.0,0637.6,30.9
2021-01-29T14:23:00Z,00000200,01000000,0000.12,0000.24,0000.37,0000.38,0000.14,0000.00,0000.64,-000.10,0000.57,16.3,23.4,,00.0,0637.5,30.9
2021-01-29T14:24:00Z,00000200,01000000,-000.07,0000.40,0000.44,0000.28,0000.04,0000.19,0000.24,0000.91,0000.53,16.3,23.4,,00.0,0637.6,30.9
2021-01-29T14:25:00Z,00000200,01000000,0000.83,-000.03,0000.11,0000.13,-000.24,0000.32,0000.94,0000.47,0000.14,16.4,23.4,,00.0,0637.5,30.9
2021-01-29T14:26:00Z,00000200,01000000,0000.60,0000.28,0000.11,0000.45,0000.15,0000.14,0000.10,0000.31,0000.21,16.5,23.5,,00.0,0637.6,31.0
2021-01-29T14:27:00Z,00000200,01000000,0000.57,0000.41,0000.22,0000.88,0000.05,0000.14,0000.08,-000.08,0000.11,16.6,23.5,,00.0,0637.6,31.0
2021-01-29T14:28:00Z,00000200,01000000,0000.21,0000.17,-000.00,-000.13,-000.22,0000.19,0000.01,-000.00,-000.18,16.6,23.5,,00.0,0637.6,30.9
2021-01-29T14:29:00Z,00000200,01000000,0000.32,0000.13,0000.08,0000.53,-000.10,-000.09,0000.15,0000.20,-000.00,16.6,23.5,,00.0,0637.6,30.9
2021-01-29T14:30:00Z,00000200,01000000,0000.17,0000.17,0000.18,0000.25,0000.04,0000.12,0000.42,0000.24,0000.32,16.6,23.5,,00.0,0637.6,30.9
2021-01-29T14:31:00Z,00000200,01000000,0000.63,-000.03,0000.12,0000.24,-000.26,0000.07,0000.06,0000.33,0000.30,16.6,23.5,,00.0,0637.6,30.9
2021-01-29T14:32:00Z,00000200,01000000,0000.46,0000.05,0000.20,0000.36,-000.07,0000.21,0000.35,-000.12,0000.09,16.6,23.5,,00.0,0637.6,30.9
2021-01-29T14:33:00Z,00000200,01000000,0000.36,0000.27,-000.08,0000.41,-000.03,0000.04,-000.46,0000.24,-000.04,16.7,23.5,,00.0,0637.6,31.0
2021-01-29T14:34:00Z,00000200,01000000,0000.96,0000.20,0000.47,0000.19,-000.11,0000.34,-000.19,0000.25,0000.43,16.7,23.6,,00.0,0637.6,31.0
2021-01-29T14:35:00Z,00000200,01000000,0000.54,0000.08,0000.51,0000.23,-000.08,0000.22,0000.53,-000.17,-000.14,16.8,23.6,,00.0,0637.6,31.0
2021-01-29T14:36:00Z,00000200,01000000,0000.48,-000.12,0000.08,0000.37,-000.14,0000.03,-000.14,0000.47,-000.24,16.9,23.6,,00.0,0637.7,31.0
2021-01-29T14:37:00Z,00000200,01000000,0000.41,0000.27,0000.00,0000.41,-000.05,-000.03,0000.01,0000.29,0000.29,17.0,23.7,,00.0,0637.7,31.1
2021-01-29T14:38:00Z,00000200,01000000,0000.26,0000.24,0000.07,-000.12,-000.03,0000.11,0000.53,-000.28,0000.01,17.1,23.7,,00.0,0637.7,31.0
2021-01-29T14:39:00Z,00000200,01000000,0000.25,0000.14,0000.12,0000.50,-000.21,0000.09,0000.01,0000.08,0000.25,17.1,23.8,,00.0,0637.8,31.0
2021-01-29T14:40:00Z,00000200,01000000,0000.70,0000.05,0000.14,-000.22,-000.04,-000.08,0000.23,0000.21,-000.06,17.2,23.8,,00.0,0637.8,31.0
2021-01-29T14:41:00Z,00000200,01000000,0000.54,-000.24,0000.40,0000.79,-000.07,0000.32,-000.18,0000.04,0000.17,17.3,23.9,,00.0,0637.9,31.1
2021-01-29T14:42:00Z,00000200,01000000,0001.14,0000.37,0000.01,0000.24,-000.20,0000.00,-000.19,-000.10,-000.26,17.3,23.9,,00.0,0637.9,31.1
2021-01-29T14:43:00Z,00000200,01000000,0000.69,0000.16,-000.04,0000.05,-000.42,0000.02,0000.56,0000.39,0000.58,17.4,23.9,,00.0,0637.9,31.1
2021-01-29T14:44:00Z,00000200,01000000,0000.60,0000.08,0000.16,0000.54,-000.05,0000.25,-000.26,0000.31,-000.49,17.5,24.0,,00.0,0637.9,31.1
2021-01-29T14:45:00Z,00000200,01000000,-000.07,-000.08,0000.09,-000.05,0000.18,-000.01,0000.03,-000.89,0000.21,17.5,24.0,,00.0,0637.9,31.1
2021-01-29T14:46:00Z,00000200,01000000,0000.04,0000.42,0000.27,0000.10,-000.25,0000.30,0000.60,0000.91,0000.56,17.5,24.1,,00.0,0637.9,31.0
2021-01-29T14:47:00Z,00000200,01000000,0000.64,0000.04,0000.15,-000.11,0000.10,0000.02,-000.08,-000.05,-000.19,17.5,24.0,,00.0,0637.9,31.0
2021-01-29T14:48:00Z,00000200,01000000,-000.20,0000.14,0000.22,-000.25,0000.04,-000.20,-000.15,0000.04,0000.35,17.5,24.0,,00.0,0637.9,31.1
2021-01-29T14:49:00Z,00000200,01000000,0000.38,0000.26,0000.29,0000.46,0000.18,0000.19,0000.30,0000.44,-000.17,17.5,24.1,,00.0,0637.9,31.1
2021-01-29T14:50:00Z,00000200,01000000,0000.73,0000.15,0000.38,0000.44,0000.01,0000.24,0000.50,0000.21,0000.44,17.6,24.1,,00.0,0637.9,31.1
2021-01-29T14:51:00Z,00000200,01000000,0000.67,0000.51,0000.03,0000.09,-000.27,0000.16,-000.04,-000.29,-000.33,17.7,24.2,,00.0,0637.8,31.0
2021-01-29T14:52:00Z,00000200,01000000,0000.45,0000.09,0000.36,0000.38,-000.23,0000.21,0000.33,0000.33,0000.32,17.7,24.2,,00.0,0637.8,31.0
2021-01-29T14:53:00Z,00000200,01000000,0000.73,0000.20,0000.33,0000.29,0000.17,0000.10,0000.05,-000.09,0000.04,17.7,24.2,,00.0,0637.7,31.0
2021-01-29T14:54:00Z,00000200,01000000,0000.38,0000.08,0000.06,0000.00,0000.05,-000.04,0000.34,0000.15,0000.48,17.7,24.2,,00.0,0637.8,31.0
2021-01-29T14:55:00Z,00000200,01000000,0000.16,0000.18,0000.33,-000.08,0000.17,0000.04,0000.27,0000.39,-000.11,17.8,24.2,,00.0,0637.7,31.0
2021-01-29T14:56:00Z,00000200,01000000,0000.50,-000.14,0000.32,0000.18,-000.19,-000.06,-000.14,-000.13,0000.09,17.8,24.3,,00.0,0637.7,31.0
2021-01-29T14:57:00Z,00000200,41000000,,,,,,,-000.16,-000.22,-000.19,17.9,24.3,,00.0,0637.7,31.0
2021-01-29T14:58:00Z,00000200,61000000,,,,,,,0000.59,0000.74,0000.13,17.3,24.3,,00.0,0636.7,31.0
2021-01-29T14:59:00Z,00000200,21000000,,,,,,,0000.20,-000.29,0000.15,17.2,24.4,,00.0,0636.7,30.9
